period_start,C,m1,H,J0,J1,J2,J3,J4,J5,JA,JB,JC,JD,JJ,JK,JN,#
2015-09-23 00:03:17,0.01,1.13,0.00,18.99,24.95,28.34,14.94,49.62,1021.99,2047.01,3002.00,2953.14,3211.83,599.60,607.02,47.49,0000 0000 0000 0000 000000
2015-09-23 00:08:18,0.01,1.13,0.00,19.00,24.95,28.31,15.02,49.65,1021.98,2047.00,3001.97,2953.02,3211.41,600.06,607.44,47.54,0000 0000 0000 0000 000000
2015-09-23 00:13:19,0.00,1.13,0.00,19.00,24.95,28.32,14.96,49.63,1021.99,2047.01,3001.94,2953.01,3211.12,600.15,607.41,47.59,0000 0000 0000 0000 000000
2015-09-23 00:18:20,0.01,1.13,0.00,19.02,24.95,28.33,14.88,49.63,1021.97,2047.02,3001.54,2953.00,3211.04,599.47,606.84,47.64,0000 0000 0000 0000 000000
2015-09-23 00:23:22,0.00,1.13,0.00,19.00,24.96,28.33,14.88,49.67,1021.98,2047.03,3001.07,2953.00,3211.00,599.50,606.90,47.70,0000 0000 0000 0000 000000
2015-09-23 00:28:23,0.00,1.13,0.00,19.00,24.96,28.34,14.95,49.68,1021.95,2047.03,3001.00,2952.96,3211.00,600.17,607.39,47.75,0000 0000 0000 0000 000000
2015-09-23 00:33:24,0.01,1.13,0.00,18.99,24.96,28.32,14.94,49.64,1021.89,2047.07,3000.96,2952.89,3210.97,600.09,607.41,47.80,0000 0000 0000 0000 000000
2015-09-23 00:38:25,0.03,1.13,0.00,19.00,24.96,28.30,14.90,49.68,1021.89,2047.03,3000.66,2952.18,3210.53,599.83,607.15,47.85,0000 0000 0000 0000 000000
2015-09-23 00:43:26,0.01,1.13,0.00,19.02,24.96,28.33,14.95,49.63,1021.76,2047.06,3000.22,2952.03,3210.14,599.97,607.17,47.90,0000 0000 0000 0000 000000
2015-09-23 00:48:27,0.00,1.13,0.00,19.02,24.96,28.29,14.91,49.68,1021.68,2047.06,3000.02,2952.02,3210.02,600.11,607.28,47.95,0000 0000 0000 0000 000000
2015-09-23 00:53:29,-0.00,1.13,0.00,19.02,24.95,28.36,15.03,49.69,1021.61,2047.08,3000.00,2952.00,3209.99,600.32,607.57,48.00,0000 0000 0000 0000 000000
2015-09-23 00:58:30,0.00,1.13,0.00,19.02,24.95,28.35,14.94,49.62,1021.57,2047.07,2999.86,2951.96,3209.92,600.02,607.07,48.05,0000 0000 0000 0000 000000
2015-09-23 01:03:31,0.04,1.13,0.00,19.02,24.95,28.34,14.86,49.62,1021.55,2047.05,2999.22,2951.55,3209.29,599.89,606.97,48.10,0000 0000 0000 0000 000000
2015-09-23 01:08:32,0.01,1.13,0.00,19.02,24.95,28.32,14.91,49.70,1021.54,2047.06,2999.01,2951.10,3209.02,600.10,607.18,48.15,0000 0000 0000 0000 000000
2015-09-23 01:13:33,0.00,1.13,0.00,19.02,24.95,28.35,14.94,49.77,1021.55,2047.04,2998.95,2951.01,3209.00,599.96,607.12,48.20,0000 0000 0000 0000 000000
2015-09-23 01:18:34,0.01,1.14,0.00,19.02,24.95,28.34,14.93,49.66,1021.53,2047.11,2998.36,2950.99,3208.98,599.93,606.91,48.25,0000 0000 0000 0000 000000
2015-09-23 01:23:35,0.02,1.14,0.00,19.03,24.95,28.30,14.91,49.63,1021.52,2047.25,2998.13,2950.97,3208.89,600.25,607.34,48.30,0000 0000 0000 0000 000000
2015-09-23 01:28:36,0.09,1.14,0.00,19.04,24.95,28.32,14.90,49.56,1021.54,2047.20,2997.07,2949.83,3207.51,599.99,607.03,48.35,0000 0000 0000 0000 000000
2015-09-23 01:33:38,0.30,1.15,0.00,19.04,24.95,28.34,14.93,49.67,1021.53,2047.20,2992.63,2946.55,3203.65,599.92,607.03,48.40,0000 0000 0000 0000 000000
2015-09-23 01:38:39,0.11,1.16,0.00,19.04,24.95,28.35,14.94,49.66,1021.51,2047.28,2989.10,2944.06,3200.66,600.10,607.13,48.45,0000 0000 0000 0000 000000
2015-09-23 01:43:40,0.00,1.16,0.00,19.05,24.95,28.34,14.86,49.68,1021.51,2047.33,2989.01,2944.00,3200.56,599.85,606.86,48.50,0000 0000 0000 0000 000000
2015-09-23 01:48:42,0.00,1.16,0.00,19.07,24.95,28.34,14.97,49.66,1021.50,2047.33,2989.03,2944.00,3200.80,600.24,607.22,48.55,0000 0000 0000 0000 000000
2015-09-23 01:53:43,0.00,1.16,0.00,19.08,24.94,28.38,14.91,49.72,1021.50,2047.41,2989.09,2944.00,3200.87,599.86,606.79,48.60,0000 0000 0000 0000 000000
2015-09-23 01:58:44,-0.01,1.16,0.00,19.09,24.95,28.38,14.96,49.70,1021.50,2047.24,2989.04,2944.00,3200.65,599.93,606.67,48.66,0000 0000 0000 0000 000000
2015-09-23 02:03:46,0.00,1.16,0.00,19.09,24.95,28.36,14.91,49.63,1021.50,2047.15,2989.01,2944.00,3200.40,600.06,606.96,48.71,0000 0000 0000 0000 000000
2015-09-23 02:08:47,0.00,1.16,0.00,19.09,24.95,28.35,14.96,49.62,1021.50,2047.09,2989.01,2944.00,3200.14,600.25,607.15,48.76,0000 0000 0000 0000 000000
2015-09-23 02:13:48,0.00,1.16,0.00,19.09,24.95,28.36,15.02,49.62,1021.50,2047.10,2989.01,2943.99,3200.22,600.13,607.14,48.81,0000 0000 0000 0000 000000
2015-09-23 02:18:50,0.01,1.16,0.00,19.11,24.95,28.37,14.95,49.73,1021.50,2047.13,2989.01,2943.99,3200.26,599.73,606.67,48.86,0000 0000 0000 0000 000000
2015-09-23 02:23:51,-0.00,1.16,0.00,19.12,24.95,28.37,14.92,49.58,1021.50,2047.16,2989.10,2943.99,3200.43,600.02,606.81,48.91,0000 0000 0000 0000 000000
2015-09-23 02:28:52,0.00,1.16,0.00,19.12,24.95,28.37,14.82,49.56,1021.50,2047.12,2989.03,2943.99,3200.21,599.73,606.75,48.96,0000 0000 0000 0000 000000
2015-09-23 02:33:53,-0.00,1.16,0.00,19.12,24.95,28.36,14.91,49.42,1021.50,2047.06,2989.02,2943.98,3200.14,600.18,606.97,49.01,0000 0000 0000 0000 000000
2015-09-23 02:38:54,0.00,1.16,0.00,19.14,24.95,28.37,14.95,49.64,1021.50,2047.03,2989.00,2943.99,3200.01,600.09,606.96,49.06,0000 0000 0000 0000 000000
2015-09-23 02:43:55,-0.00,1.16,0.00,19.14,24.95,28.39,14.94,49.63,1021.50,2047.01,2989.02,2943.98,3200.01,599.86,606.63,49.11,0000 0000 0000 0000 000000
2015-09-23 02:48:57,-0.00,1.16,0.00,19.14,24.95,28.39,14.84,49.58,1021.50,2047.01,2989.00,2943.95,3200.00,599.58,606.44,49.16,0000 0000 0000 0000 000000
2015-09-23 02:53:58,0.00,1.16,0.00,19.15,24.96,28.40,14.97,49.62,1021.50,2047.01,2989.01,2943.96,3200.00,600.22,607.11,49.21,0000 0000 0000 0000 000000
2015-09-23 02:59:00,-0.00,1.16,0.00,19.17,24.97,28.39,14.89,49.56,1021.50,2047.01,2989.00,2943.92,3200.00,599.77,606.46,49.26,0000 0000 0000 0000 000000
2015-09-23 03:04:01,0.00,1.16,0.00,19.17,24.97,28.42,14.94,49.69,1021.50,2047.00,2989.00,2943.86,3200.00,600.04,606.80,49.31,0000 0000 0000 0000 000000
2015-09-23 03:09:02,-0.00,1.16,0.00,19.17,24.97,28.43,14.88,49.58,1021.50,2047.00,2989.00,2943.88,3200.00,599.89,606.62,49.36,0000 0000 0000 0000 000000
2015-09-23 03:14:04,0.01,1.16,0.00,19.18,24.97,28.41,14.90,49.50,1021.50,2047.00,2989.00,2943.55,3199.99,599.64,606.25,49.41,0000 0000 0000 0000 000000
2015-09-23 03:19:05,-0.01,1.16,0.00,19.19,24.97,28.43,14.88,49.61,1021.50,2047.00,2989.00,2943.65,3199.99,600.15,606.85,49.46,0000 0000 0000 0000 000000
2015-09-23 03:24:06,-0.00,1.16,0.00,19.21,24.97,28.45,14.86,49.57,1021.50,2047.00,2989.00,2943.62,3199.99,599.66,606.32,49.51,0000 0000 0000 0000 000000
2015-09-23 03:29:07,0.00,1.16,0.00,19.24,24.98,28.46,14.90,49.68,1021.50,2047.00,2989.00,2943.54,3199.99,600.14,606.70,49.57,0000 0000 0000 0000 000000
2015-09-23 03:34:08,0.01,1.16,0.00,19.24,25.00,28.47,14.97,49.66,1021.50,2047.00,2989.00,2943.28,3199.99,599.97,606.43,49.62,0000 0000 0000 0000 000000
2015-09-23 03:39:10,0.00,1.16,0.00,19.27,25.00,28.49,14.96,49.63,1021.50,2047.00,2988.98,2943.07,3199.98,599.89,606.58,49.67,0000 0000 0000 0000 000000
2015-09-23 03:44:11,0.00,1.16,0.00,19.28,25.01,28.52,14.95,49.77,1021.50,2047.00,2988.98,2943.04,3199.98,599.96,606.46,49.72,0000 0000 0000 0000 000000
2015-09-23 03:49:12,0.00,1.16,0.00,19.29,25.02,28.49,14.91,49.67,1021.50,2047.00,2988.98,2943.01,3199.92,600.14,606.51,49.77,0000 0000 0000 0000 000000
2015-09-23 03:54:13,0.00,1.16,0.00,19.30,25.02,28.48,14.88,49.77,1021.51,2047.00,2988.93,2943.01,3199.81,600.02,606.42,49.82,0000 0000 0000 0000 000000
2015-09-23 03:59:15,0.01,1.16,0.00,19.32,25.03,28.53,14.90,49.70,1021.52,2047.00,2988.68,2943.00,3199.58,600.21,606.68,49.87,0000 0000 0000 0000 000000
2015-09-23 04:04:16,0.01,1.16,0.00,19.33,25.05,28.54,14.86,49.75,1021.52,2047.00,2988.35,2943.00,3199.21,599.74,606.22,49.92,0000 0000 0000 0000 000000
2015-09-23 04:09:17,0.00,1.17,0.00,19.34,25.05,28.56,14.94,49.82,1021.50,2047.00,2988.07,2943.00,3199.05,600.10,606.52,49.97,0000 0000 0000 0000 000000
2015-09-23 04:14:18,0.00,1.17,0.00,19.34,25.06,28.58,14.92,49.78,1021.50,2047.00,2988.03,2943.00,3199.02,600.31,606.58,50.02,0000 0000 0000 0000 000000
2015-09-23 04:19:20,0.00,1.17,0.00,19.37,25.07,28.56,14.92,49.84,1021.51,2047.00,2988.12,2942.98,3199.01,599.93,606.24,50.07,0000 0000 0000 0000 000000
2015-09-23 04:24:21,0.00,1.17,0.00,19.37,25.07,28.57,14.94,49.73,1021.51,2047.00,2988.03,2942.97,3199.00,600.22,606.56,50.12,0000 0000 0000 0000 000000
2015-09-23 04:29:22,0.00,1.17,0.00,19.37,25.07,28.55,14.95,49.75,1021.53,2047.00,2988.01,2942.94,3199.00,599.96,606.26,50.17,0000 0000 0000 0000 000000
2015-09-23 04:34:23,0.00,1.17,0.00,19.39,25.09,28.59,14.89,49.62,1021.53,2047.00,2988.01,2942.94,3199.00,599.95,606.32,50.22,0000 0000 0000 0000 000000
2015-09-23 04:39:25,0.00,1.17,0.00,19.39,25.10,28.61,14.89,49.52,1021.55,2047.00,2988.03,2942.93,3199.00,599.80,606.13,50.27,0000 0000 0000 0000 000000
2015-09-23 04:44:26,0.00,1.17,0.00,19.42,25.10,28.65,14.92,49.75,1021.55,2047.00,2988.05,2942.87,3199.00,599.84,606.07,50.32,0000 0000 0000 0000 000000
2015-09-23 04:49:27,0.00,1.17,0.00,19.42,25.12,28.61,14.94,49.66,1021.55,2047.00,2988.01,2942.81,3199.00,600.25,606.44,50.37,0000 0000 0000 0000 000000
2015-09-23 04:54:29,0.01,1.17,0.00,19.43,25.12,28.61,14.88,49.62,1021.52,2046.99,2988.02,2942.60,3199.00,600.09,606.18,50.42,0000 0000 0000 0000 000000
2015-09-23 04:59:30,0.01,1.17,0.00,19.45,25.14,28.64,14.88,49.60,1021.54,2046.99,2988.00,2942.15,3198.99,600.17,606.40,50.48,0000 0000 0000 0000 000000
2015-09-23 05:04:31,0.00,1.17,0.00,19.47,25.15,28.63,14.91,49.72,1021.55,2046.99,2988.00,2942.04,3198.96,599.97,606.17,50.53,0000 0000 0000 0000 000000
2015-09-23 05:09:32,-0.00,1.17,0.00,19.48,25.16,28.66,14.91,49.64,1021.55,2046.98,2987.99,2942.03,3198.93,600.06,606.19,50.58,0000 0000 0000 0000 000000
2015-09-23 05:14:34,0.00,1.17,0.00,19.49,25.17,28.66,14.84,49.73,1021.54,2046.97,2987.99,2942.01,3198.56,599.69,605.79,50.63,0000 0000 0000 0000 000000
2015-09-23 05:19:35,0.00,1.17,0.00,19.50,25.18,28.67,14.98,49.87,1021.59,2046.96,2987.97,2942.00,3198.25,600.11,606.26,50.68,0000 0000 0000 0000 000000
2015-09-23 05:24:36,-0.00,1.17,0.00,19.52,25.20,28.71,15.02,49.95,1021.72,2046.93,2987.94,2942.00,3198.17,600.19,606.34,50.73,0000 0000 0000 0000 000000
2015-09-23 05:29:37,0.01,1.17,0.00,19.53,25.21,28.69,14.94,49.92,1021.89,2046.96,2987.64,2942.00,3198.05,599.98,606.24,50.78,0000 0000 0000 0000 000000
2015-09-23 05:34:38,0.00,1.17,0.00,19.54,25.22,28.74,14.83,49.65,1021.96,2046.90,2987.28,2941.98,3198.01,599.80,606.11,50.83,0000 0000 0000 0000 000000
2015-09-23 05:39:40,-0.02,1.17,0.00,19.55,25.24,28.70,14.88,49.70,1021.98,2046.72,2987.02,2941.91,3198.00,600.08,606.41,50.88,0000 0000 0000 0000 000000
2015-09-23 05:44:41,-0.02,1.17,0.00,19.57,25.25,28.74,14.93,49.72,1021.99,2046.42,2987.00,2941.58,3198.00,600.02,606.19,50.93,0000 0000 0000 0000 000000
2015-09-23 05:49:42,0.01,1.17,0.00,19.57,25.26,28.74,14.94,49.78,1021.99,2046.32,2986.99,2941.16,3197.96,600.06,606.27,50.98,0000 0000 0000 0000 000000
2015-09-23 05:54:43,-0.01,1.17,0.00,19.58,25.27,28.77,14.82,49.70,1021.99,2046.18,2986.99,2941.07,3197.94,600.05,606.20,51.03,0000 0000 0000 0000 000000
2015-09-23 05:59:45,0.01,1.17,0.00,19.59,25.27,28.76,14.89,49.83,1021.99,2046.15,2986.90,2941.01,3197.77,599.89,606.17,51.08,0000 0000 0000 0000 000000
2015-09-23 06:04:46,0.00,1.17,0.00,19.62,25.30,28.80,14.83,49.63,1021.99,2046.09,2986.51,2941.00,3197.19,599.96,606.07,51.13,0000 0000 0000 0000 000000
2015-09-23 06:09:47,-0.00,1.17,0.00,19.62,25.30,28.79,14.90,49.73,1021.99,2046.05,2986.80,2941.00,3197.07,599.93,605.99,51.18,0000 0000 0000 0000 000000
2015-09-23 06:14:48,0.00,1.17,0.00,19.63,25.31,28.80,14.91,49.86,1021.99,2046.02,2986.73,2941.00,3197.03,600.01,606.14,51.23,0000 0000 0000 0000 000000
2015-09-23 06:19:49,0.01,1.17,0.00,19.64,25.32,28.82,14.86,49.77,1021.99,2046.00,2986.48,2940.99,3197.01,599.93,605.94,51.28,0000 0000 0000 0000 000000
2015-09-23 06:24:50,0.00,1.17,0.00,19.66,25.33,28.78,14.82,49.67,1022.00,2046.01,2986.49,2940.98,3197.01,599.81,605.83,51.34,0000 0000 0000 0000 000000
2015-09-23 06:29:51,-0.00,1.17,0.00,19.67,25.35,28.83,14.89,49.86,1021.99,2046.01,2986.44,2940.98,3197.00,600.11,606.14,51.39,0000 0000 0000 0000 000000
2015-09-23 06:34:53,-0.00,1.17,0.00,19.69,25.35,28.85,15.04,49.79,1021.99,2046.00,2986.36,2940.95,3197.00,600.49,606.46,51.44,0000 0000 0000 0000 000000
2015-09-23 06:39:54,0.01,1.17,0.00,19.69,25.37,28.87,15.03,49.74,1022.01,2046.00,2986.06,2940.78,3196.99,600.31,606.29,51.49,0000 0000 0000 0000 000000
2015-09-23 06:44:55,-0.00,1.17,0.00,19.71,25.37,28.87,14.89,49.73,1022.01,2046.00,2986.06,2940.65,3196.98,600.21,606.14,51.54,0000 0000 0000 0000 000000
2015-09-23 06:49:56,0.01,1.17,0.00,19.72,25.38,28.87,14.88,49.77,1022.02,2045.97,2986.04,2940.33,3196.96,599.93,605.75,51.59,0000 0000 0000 0000 000000
2015-09-23 06:54:58,0.00,1.17,0.00,19.72,25.40,28.91,14.89,49.87,1022.00,2045.98,2986.03,2940.12,3196.91,600.01,605.88,51.64,0000 0000 0000 0000 000000
2015-09-23 06:59:59,0.00,1.17,0.00,19.73,25.40,28.92,14.87,49.83,1022.01,2045.97,2986.03,2940.20,3196.94,599.85,605.90,51.69,0000 0000 0000 0000 000000
2015-09-23 07:05:00,0.01,1.17,0.00,19.74,25.41,28.89,14.92,49.79,1022.03,2045.98,2986.00,2940.04,3196.56,600.13,605.97,51.74,0000 0000 0000 0000 000000
2015-09-23 07:10:01,0.00,1.17,0.00,19.74,25.42,28.93,14.91,49.88,1022.06,2045.97,2986.00,2940.01,3196.36,599.92,605.81,51.79,0000 0000 0000 0000 000000
2015-09-23 07:15:02,-0.00,1.17,0.00,19.75,25.42,28.96,14.96,49.82,1022.16,2045.97,2986.00,2940.01,3196.24,600.49,606.47,51.84,0000 0000 0000 0000 000000
2015-09-23 07:20:03,0.00,1.17,0.00,19.75,25.43,28.96,14.85,49.71,1022.19,2045.95,2986.00,2940.00,3196.10,599.90,605.92,51.89,0000 0000 0000 0000 000000
2015-09-23 07:25:05,0.00,1.17,0.00,19.77,25.45,28.91,14.88,49.93,1022.08,2045.90,2985.99,2940.00,3196.04,600.05,605.78,51.94,0000 0000 0000 0000 000000
2015-09-23 07:30:06,-0.04,1.17,0.00,19.77,25.45,28.97,14.96,49.75,1022.21,2045.58,2985.99,2940.00,3196.02,599.98,605.96,51.99,0000 0000 0000 0000 000000
2015-09-23 07:35:07,-0.00,1.17,0.00,19.77,25.46,29.00,14.89,49.81,1022.40,2045.31,2985.99,2940.00,3196.01,599.92,605.96,52.04,0000 0000 0000 0000 000000
2015-09-23 07:40:08,-0.01,1.17,0.00,19.77,25.47,28.97,14.92,49.83,1022.47,2045.22,2985.99,2940.00,3196.00,600.18,606.25,52.09,0000 0000 0000 0000 000000
2015-09-23 07:45:09,-0.00,1.17,0.00,19.77,25.47,28.98,14.86,49.73,1022.48,2045.15,2985.98,2939.99,3196.00,600.24,606.44,52.14,0000 0000 0000 0000 000000
2015-09-23 07:50:10,-0.00,1.16,0.00,19.78,25.49,28.97,14.86,49.74,1022.48,2045.11,2985.98,2939.99,3196.00,599.84,605.89,52.19,0000 0000 0000 0000 000000
2015-09-23 07:55:11,-0.00,1.16,0.00,19.78,25.50,29.01,14.95,49.83,1022.48,2045.08,2985.92,2939.99,3196.00,600.25,606.40,52.24,0000 0000 0000 0000 000000
2015-09-23 08:00:12,0.00,1.17,0.00,19.78,25.50,29.02,15.00,49.98,1022.48,2045.05,2985.57,2939.95,3195.99,600.27,606.34,52.30,0000 0000 0000 0000 000000
2015-09-23 08:05:14,0.00,1.17,0.00,19.78,25.50,29.02,14.90,49.84,1022.48,2045.04,2985.36,2939.94,3195.97,600.13,606.18,52.35,0000 0000 0000 0000 000000
2015-09-23 08:10:15,0.00,1.17,0.00,19.78,25.52,29.03,14.93,50.02,1022.49,2045.03,2985.26,2939.91,3195.98,599.91,605.76,52.40,0000 0000 0000 0000 000000
2015-09-23 08:15:16,0.00,1.17,0.00,19.79,25.52,29.02,14.88,50.00,1022.50,2045.03,2985.30,2939.94,3195.98,600.34,606.36,52.45,0000 0000 0000 0000 000000
2015-09-23 08:20:17,0.01,1.17,0.00,19.79,25.52,29.05,14.89,50.12,1022.51,2045.02,2985.15,2939.82,3195.97,599.66,605.87,52.50,0000 0000 0000 0000 000000
2015-09-23 08:25:18,0.01,1.17,0.00,19.79,25.52,29.03,14.93,50.11,1022.56,2045.00,2985.05,2939.46,3195.92,600.16,606.11,52.55,0000 0000 0000 0000 000000
2015-09-23 08:30:20,0.01,1.17,0.00,19.79,25.53,29.03,14.88,49.87,1022.55,2045.01,2985.04,2939.29,3195.83,599.95,606.14,52.60,0000 0000 0000 0000 000000
2015-09-23 08:35:21,0.00,1.17,0.00,19.79,25.54,29.04,14.95,50.11,1022.55,2045.00,2985.03,2939.13,3195.64,600.35,606.39,52.65,0000 0000 0000 0000 000000
2015-09-23 08:40:22,0.01,1.17,0.00,19.79,25.55,29.04,14.95,50.17,1022.63,2045.00,2985.00,2939.03,3195.21,600.15,606.43,52.70,0000 0000 0000 0000 000000
2015-09-23 08:45:24,0.00,1.17,0.00,19.79,25.55,29.04,14.88,49.96,1022.77,2045.00,2985.00,2939.01,3195.04,599.98,606.14,52.75,0000 0000 0000 0000 000000
2015-09-23 08:50:25,0.00,1.17,0.00,19.79,25.55,29.03,14.88,49.96,1022.88,2045.00,2984.99,2939.01,3195.03,600.33,606.56,52.80,0000 0000 0000 0000 000000
2015-09-23 08:55:26,0.00,1.17,0.00,19.79,25.55,29.03,14.88,50.01,1022.89,2045.00,2984.98,2939.00,3195.03,599.98,606.25,52.85,0000 0000 0000 0000 000000
2015-09-23 09:00:27,0.00,1.17,0.00,19.79,25.55,29.04,14.84,49.90,1022.93,2045.00,2984.96,2939.00,3195.01,600.02,606.27,52.90,0000 0000 0000 0000 000000
2015-09-23 09:05:29,0.00,1.17,0.00,19.79,25.55,29.06,15.00,49.94,1022.94,2045.00,2984.90,2939.00,3195.00,600.65,606.92,52.95,0000 0000 0000 0000 000000
2015-09-23 09:10:30,0.00,1.17,0.00,19.79,25.55,29.05,14.97,49.96,1022.94,2045.00,2984.66,2938.99,3195.00,600.09,606.30,53.00,0000 0000 0000 0000 000000
2015-09-23 09:15:31,-0.00,1.17,0.00,19.79,25.56,29.03,14.93,49.92,1022.93,2045.00,2984.62,2938.99,3195.00,600.23,606.59,53.05,0000 0000 0000 0000 000000
2015-09-23 09:20:32,0.00,1.17,0.00,19.79,25.57,29.04,14.90,50.01,1022.96,2045.00,2984.44,2938.99,3195.00,599.90,606.33,53.10,0000 0000 0000 0000 000000
2015-09-23 09:25:34,0.00,1.17,0.00,19.78,25.57,29.05,14.93,49.85,1022.96,2045.00,2984.18,2938.98,3194.99,599.88,606.22,53.15,0000 0000 0000 0000 000000
2015-09-23 09:30:35,0.00,1.17,0.00,19.77,25.57,29.08,14.86,49.83,1022.96,2045.00,2984.10,2938.97,3194.99,600.14,606.37,53.20,0000 0000 0000 0000 000000
2015-09-23 09:35:36,0.00,1.17,0.00,19.77,25.57,29.07,14.85,49.83,1022.96,2044.99,2984.02,2938.97,3194.98,599.91,606.34,53.25,0000 0000 0000 0000 000000
2015-09-23 09:40:37,0.00,1.17,0.00,19.77,25.57,29.09,14.92,49.99,1022.97,2044.99,2984.01,2938.96,3194.94,600.14,606.46,53.31,0000 0000 0000 0000 000000
2015-09-23 09:45:39,0.00,1.17,0.00,19.77,25.57,29.09,14.91,49.80,1022.96,2044.99,2984.02,2938.93,3194.95,600.15,606.39,53.36,0000 0000 0000 0000 000000
2015-09-23 09:50:40,0.01,1.17,0.00,19.77,25.57,29.04,14.84,49.63,1022.97,2044.99,2984.00,2938.74,3194.81,599.68,606.24,53.41,0000 0000 0000 0000 000000
2015-09-23 09:55:41,0.01,1.17,0.00,19.77,25.57,29.04,14.87,49.81,1022.98,2044.99,2983.99,2938.45,3194.55,599.79,606.16,53.46,0000 0000 0000 0000 000000
2015-09-23 10:00:42,0.00,1.17,0.00,19.76,25.57,29.06,14.93,49.84,1022.99,2044.99,2983.98,2938.38,3194.59,599.94,606.38,53.51,0000 0000 0000 0000 000000
2015-09-23 10:05:43,0.01,1.17,0.00,19.74,25.57,29.05,14.85,49.82,1023.00,2044.99,2983.94,2938.08,3194.16,600.11,606.55,53.56,0000 0000 0000 0000 000000
2015-09-23 10:10:44,0.00,1.17,0.00,19.74,25.57,29.03,14.97,49.89,1023.00,2044.99,2983.91,2938.06,3194.06,599.94,606.34,53.61,0000 0000 0000 0000 000000
2015-09-23 10:15:46,0.00,1.17,0.00,19.74,25.56,29.03,14.86,49.78,1022.99,2044.99,2983.65,2938.04,3194.05,599.62,606.06,53.66,0000 0000 0000 0000 000000
2015-09-23 10:20:47,0.01,1.17,0.00,19.74,25.56,29.00,14.93,49.98,1023.01,2044.99,2983.06,2938.00,3194.01,599.93,606.40,53.71,0000 0000 0000 0000 000000
2015-09-23 10:25:48,0.00,1.17,0.00,19.73,25.55,29.02,14.87,49.90,1023.01,2045.00,2983.00,2938.00,3194.00,599.72,606.20,53.76,0000 0000 0000 0000 000000
2015-09-23 10:30:49,0.00,1.17,0.00,19.72,25.55,29.02,14.89,49.95,1023.01,2045.00,2983.00,2938.00,3193.99,600.01,606.62,53.81,0000 0000 0000 0000 000000
2015-09-23 10:35:51,0.00,1.17,0.00,19.71,25.55,29.02,14.98,49.78,1023.05,2045.00,2983.00,2938.00,3193.99,600.09,606.62,53.86,0000 0000 0000 0000 000000
2015-09-23 10:40:52,0.00,1.17,0.00,19.69,25.55,29.02,14.92,49.75,1023.17,2045.00,2983.00,2937.99,3193.99,600.05,606.71,53.91,0000 0000 0000 0000 000000
2015-09-23 10:45:54,0.00,1.17,0.00,19.69,25.55,29.01,14.91,49.90,1023.32,2045.00,2982.99,2937.97,3193.95,599.90,606.62,53.96,0000 0000 0000 0000 000000
2015-09-23 10:50:55,0.01,1.17,0.00,19.68,25.55,29.01,14.95,49.80,1023.29,2045.00,2982.89,2937.94,3193.77,600.24,607.10,54.01,0000 0000 0000 0000 000000
2015-09-23 10:55:56,0.03,1.17,0.00,19.67,25.55,28.99,14.94,49.77,1023.36,2045.00,2982.36,2937.66,3193.28,600.11,606.87,54.06,0000 0000 0000 0000 000000
2015-09-23 11:00:58,0.01,1.17,0.00,19.67,25.55,29.00,14.92,49.67,1023.30,2045.01,2982.04,2937.12,3193.03,599.90,606.66,54.11,0000 0000 0000 0000 000000
2015-09-23 11:05:59,0.00,1.18,0.00,19.65,25.55,28.94,14.87,49.70,1023.20,2045.02,2982.00,2937.01,3193.01,599.82,606.62,54.17,0000 0000 0000 0000 000000
2015-09-23 11:11:00,-0.00,1.18,0.00,19.64,25.54,28.97,14.92,49.86,1023.20,2045.04,2982.00,2937.00,3193.00,599.97,606.74,54.22,0000 0000 0000 0000 000000
2015-09-23 11:16:02,0.00,1.18,0.00,19.64,25.53,28.98,14.90,49.81,1023.31,2045.02,2982.00,2937.00,3192.98,599.90,606.71,54.27,0000 0000 0000 0000 000000
2015-09-23 11:21:03,-0.00,1.18,0.00,19.64,25.52,28.93,14.96,49.81,1023.38,2045.02,2981.97,2937.00,3192.97,600.17,607.11,54.32,0000 0000 0000 0000 000000
2015-09-23 11:26:05,0.02,1.18,0.00,19.62,25.52,28.92,14.90,49.83,1023.38,2045.05,2981.73,2936.91,3192.55,599.95,606.76,54.37,0000 0000 0000 0000 000000
2015-09-23 11:31:06,0.03,1.18,0.00,19.61,25.52,28.92,14.90,49.71,1023.37,2045.04,2981.09,2936.25,3192.03,600.02,606.97,54.42,0000 0000 0000 0000 000000
2015-09-23 11:36:07,0.01,1.18,0.00,19.60,25.52,28.92,14.97,49.83,1023.37,2045.08,2981.00,2936.03,3192.00,600.15,607.08,54.47,0000 0000 0000 0000 000000
2015-09-23 11:41:08,-0.00,1.18,0.00,19.59,25.52,28.89,14.87,49.66,1023.40,2045.09,2980.99,2936.00,3191.99,599.77,606.71,54.52,0000 0000 0000 0000 000000
2015-09-23 11:46:09,-0.00,1.18,0.00,19.59,25.50,28.89,14.95,49.82,1023.37,2045.05,2980.97,2935.99,3191.92,600.22,607.22,54.57,0000 0000 0000 0000 000000
2015-09-23 11:51:11,0.01,1.18,0.00,19.57,25.50,28.86,14.95,49.79,1023.41,2045.09,2980.95,2935.98,3191.58,600.31,607.36,54.62,0000 0000 0000 0000 000000
2015-09-23 11:56:12,-0.00,1.18,0.00,19.57,25.50,28.87,14.87,49.70,1023.41,2045.13,2980.95,2935.98,3191.45,599.79,606.78,54.67,0000 0000 0000 0000 000000
2015-09-23 12:01:13,0.01,1.18,0.00,19.56,25.50,28.87,14.96,49.67,1023.44,2045.20,2980.87,2935.96,3191.27,600.12,607.08,54.72,0000 0000 0000 0000 000000
2015-09-23 12:06:14,0.01,1.18,0.00,19.54,25.48,28.86,14.93,49.70,1023.45,2045.33,2980.92,2935.96,3191.24,600.06,607.15,54.77,0000 0000 0000 0000 000000
2015-09-23 12:11:16,0.01,1.18,0.00,19.54,25.47,28.88,14.98,49.77,1023.45,2045.30,2980.69,2935.94,3191.08,600.06,607.19,54.82,0000 0000 0000 0000 000000
2015-09-23 12:16:17,0.02,1.18,0.00,19.53,25.47,28.84,14.93,49.71,1023.45,2045.43,2980.41,2935.92,3191.05,600.08,607.24,54.87,0000 0000 0000 0000 000000
2015-09-23 12:21:18,0.02,1.18,0.00,19.52,25.47,28.87,14.94,49.80,1023.45,2045.59,2980.13,2935.85,3191.04,600.01,607.17,54.92,0000 0000 0000 0000 000000
2015-09-23 12:26:20,0.00,1.18,0.00,19.51,25.45,28.82,14.87,49.83,1023.45,2045.66,2980.02,2935.69,3191.01,600.05,607.23,54.97,0000 0000 0000 0000 000000
2015-09-23 12:31:21,0.02,1.18,0.00,19.49,25.45,28.78,14.92,49.85,1023.47,2045.82,2980.04,2935.64,3191.01,600.08,607.37,55.02,0000 0000 0000 0000 000000
2015-09-23 12:36:22,0.01,1.19,0.00,19.49,25.45,28.83,14.93,49.92,1023.47,2045.89,2980.01,2935.42,3191.01,599.89,607.16,55.07,0000 0000 0000 0000 000000
2015-09-23 12:41:24,0.00,1.19,0.00,19.49,25.43,28.81,14.89,49.77,1023.51,2045.90,2980.00,2935.24,3191.00,599.87,607.19,55.13,0000 0000 0000 0000 000000
2015-09-23 12:46:26,0.00,1.19,0.00,19.48,25.42,28.81,15.04,49.94,1023.56,2045.93,2980.00,2935.12,3191.00,599.96,607.30,55.18,0000 0000 0000 0000 000000
2015-09-23 12:51:27,0.01,1.19,0.00,19.47,25.42,28.79,14.94,49.75,1023.61,2045.97,2980.00,2935.10,3191.00,600.05,607.51,55.23,0000 0000 0000 0000 000000
2015-09-23 12:56:28,-0.00,1.19,0.00,19.47,25.42,28.81,15.00,49.83,1023.60,2045.98,2979.98,2935.06,3191.00,599.98,607.41,55.28,0000 0000 0000 0000 000000